This is the latest recevied weather packets stored in our database for station/object NK7I. If no packets are shown the sender has not sent any weather packets the latest 10 day(s).
| Time | Temp. | Humidity | Pressure | Rain* | Wind** | Luminosity | Snow |
|---|---|---|---|---|---|---|---|
| 1777785982 | 12.22° C | 68% | 1013.3 hPa | 0 mm | - | 0 W/m² | - |
| 1777785682 | 12.22° C | 67% | 1013.2 hPa | 0 mm | - | 0 W/m² | - |
| 1777785382 | 12.78° C | 66% | 1013.2 hPa | 0 mm | - | 0 W/m² | - |
| 1777785082 | 12.78° C | 67% | 1013.1 hPa | 0 mm | - | 0 W/m² | - |
| 1777784782 | 13.33° C | 67% | 1013 hPa | 0 mm | - | 0 W/m² | - |
| 1777784482 | 13.33° C | 65% | 1013 hPa | 0 mm | - | 0 W/m² | - |
| 1777784182 | 13.33° C | 63% | 1012.9 hPa | 0 mm | - | 0 W/m² | - |
| 1777783883 | 13.89° C | 63% | 1012.9 hPa | 0 mm | - | 0 W/m² | - |
| 1777783583 | 13.89° C | 63% | 1012.9 hPa | 0 mm | - | 0 W/m² | - |
| 1777783282 | 13.89° C | 63% | 1012.9 hPa | 0 mm | - | 0 W/m² | - |
| 1777782982 | 14.44° C | 60% | 1012.9 hPa | 0 mm | - | 0 W/m² | - |
| 1777782682 | 14.44° C | 62% | 1012.9 hPa | 0 mm | - | 0 W/m² | - |
| 1777782382 | 14.44° C | 61% | 1012.9 hPa | 0 mm | - | 0 W/m² | - |
| 1777782082 | 15° C | 61% | 1012.9 hPa | 0 mm | - | 0 W/m² | - |
| 1777781782 | 15° C | 61% | 1012.9 hPa | 0 mm | - | 0 W/m² | - |
| 1777781482 | 15° C | 60% | 1012.9 hPa | 0 mm | - | 0 W/m² | - |
| 1777781182 | 15° C | 57% | 1012.8 hPa | 0 mm | - | 0 W/m² | - |
| 1777780882 | 15.56° C | 58% | 1012.8 hPa | 0 mm | - | 0 W/m² | - |
| 1777780582 | 15.56° C | 59% | 1012.8 hPa | 0 mm | - | 0 W/m² | - |
| 1777780282 | 15.56° C | 58% | 1012.7 hPa | 0 mm | - | 0 W/m² | - |
| 1777779982 | 16.11° C | 58% | 1012.6 hPa | 0 mm | - | 0 W/m² | - |
| 1777779682 | 16.11° C | 57% | 1012.6 hPa | 0 mm | - | 0 W/m² | - |
| 1777779382 | 16.67° C | 55% | 1012.6 hPa | 0 mm | - | 0 W/m² | - |
| 1777779083 | 16.67° C | 55% | 1012.6 hPa | 0 mm | - | 0 W/m² | - |
| 1777778782 | 17.22° C | 55% | 1012.5 hPa | 0 mm | - | 0 W/m² | - |
* Rain latest hour (hover to see other rain measurements)
** Current wind speed in m/s (hover to see current wind gust speed)